Flag for Tonga Weather past 2 weeks in Nukualofa, Tonga

Now
66 °F

Passing clouds.


Feels Like: 66 °F
Forecast: 68 / 74 °F
Wind: 3 mph from North

Location: Fua'Amotu

Current Time: Aug 5, 2015 at 7:20:39 AM

Latest Report: Aug 5, 2015 at 7:00 AM


Visibility: N/A

Pressure: 30.09 "Hg

Humidity: 60%

Dew point: 52 °F

Location of NukualofaLocation

Historic Weather in Nukualofa — Graph

°F

Nukualofa temperature yesterday

Maximum temperature yesterday: 73 °F (at 12:00 PM)
Minimum temperature yesterday: 66 °F (at 12:00 AM)
Average temperature yesterday: 70 °F

Past Weeks' High & Low Weather Summary

 TemperatureHumidityPressure
High75 °F (Jul 26, 2:00 PM)94% (Jul 22, 7:00 AM)30.27 "Hg (Jul 22, 7:00 AM)
Low59 °F (Jul 31, 2:00 AM)44% (Jul 24, 1:00 PM)29.98 "Hg (Jul 30, 2:00 PM)
Average69 °F67%30.12 "Hg
* Reported Jul 21 6:00 AM — Aug 5 6:00 AM, Nukualofa, Weather by CustomWeather, © 2015

Note: Actual official high and low records may vary slightly from our data, if they occured in-between our weather recording intervals... More about our weather records

Advertising

Nukualofa weather history for previous 24 hours

 ConditionsComfort  
Time TempWeatherWind HumidityBarometerVisibility
6:00 AM
Wed, Aug 5
68 °FPartly cloudy.10 mph56%30.07 "HgN/A
5:00 AM70 °FPartly cloudy.9 mph60%30.07 "HgN/A
4:00 AM68 °FPartly cloudy.7 mph69%30.07 "HgN/A
3:00 AM68 °FPassing clouds.3 mph56%30.07 "HgN/A
2:00 AM68 °FPassing clouds.10 mph60%30.09 "HgN/A
1:00 AM68 °FPassing clouds.5 mph64%30.09 "HgN/A
12:00 AM68 °FPassing clouds.9 mph64%30.09 "HgN/A
11:00 PM
Tue, Aug 4
68 °FPassing clouds.9 mph69%30.09 "HgN/A
10:00 PM68 °FPassing clouds.5 mph64%30.09 "HgN/A
9:00 PM68 °FPassing clouds.7 mph69%30.09 "HgN/A
8:00 PM68 °FPassing clouds.9 mph56%30.09 "HgN/A
7:00 PM70 °FPassing clouds.9 mph64%30.07 "HgN/A
6:00 PM72 °FPassing clouds.7 mph57%30.07 "HgN/A
5:00 PM72 °FPassing clouds.14 mph57%30.07 "HgN/A
4:00 PM73 °FScattered clouds.9 mph53%30.07 "HgN/A
3:00 PM73 °FScattered clouds.10 mph50%30.07 "HgN/A
2:00 PM73 °FScattered clouds.13 mph53%30.07 "HgN/A
1:00 PM73 °FScattered clouds.14 mph53%30.09 "HgN/A
12:00 PM73 °FScattered clouds.14 mph50%30.12 "HgN/A
11:00 AM72 °FPartly sunny.13 mph61%30.12 "HgN/A
10:00 AM72 °FPartly sunny.8 mph57%30.12 "HgN/A
9:00 AM68 °FBroken clouds.10 mph64%30.09 "HgN/A
8:00 AM68 °FBroken clouds.14 mph64%30.09 "HgN/A
7:00 AM68 °FPartly sunny.13 mph60%30.07 "HgN/A
Weather by CustomWeather, © 2015

See weather overviewHow to use our weather pages